AirNav   Bose Proflight Series 2 Wireless Aviation Headset
 
 379 users online  

A43 Taku Harbor Seaplane Base
Taku Harbor, Alaska, USA

GOING TO TAKU HARBOR?


FAA INFORMATION EFFECTIVE 07 NOVEMBER 2019

Location

FAA Identifier: A43
Lat/Long: 58-04-08.8100N 134-00-55.2830W
58-04.146833N 134-00.921383W
58.0691139,-134.0153564
(estimated)
Elevation: 0 ft. / 0 m (estimated)
Variation: 28E (1985)
Time zone: UTC -9 (UTC -8 during Daylight Saving Time)
Zip code: 99824

Seaplane Base Operations

Seaplane Base use: Open to the public
Control tower: no
ARTCC: ANCHORAGE CENTER
FSS: JUNEAU FLIGHT SERVICE STATION [907-586-7380]
NOTAMs facility: JNU (NOTAM-D service available)
Attendance: UNATNDD
Wind indicator: no
Segmented circle: no

Seaplane Base Communications

CTAF: 122.9

Nearby radio navigation aids

VOR radial/distance  VOR name  Freq  Var
SSRr079/39.9SISTERS ISLAND VORTAC114.0020E

 
NDB name  Hdg/Dist  Freq  Var  ID
COGHLAN ISLAND109/27.821220ECGL -.-. --. .-..
ELEPHANT079/39.839120EEEF . . ..-.

Seaplane Base Services

Airframe service: NONE
Powerplant service: NONE

Runway Information

Runway NE/SW

Dimensions: 3000 x 1000 ft. / 914 x 305 m
Surface: water
RUNWAY NE  RUNWAY SW
Elevation: 0.0 ft.0.0 ft.
Traffic pattern: leftleft
Markings: nonenone
Runway end identifier lights: nono

Seaplane Base Ownership and Management from official FAA records

Ownership: Publicly-owned
Owner: CITY AND BOROUGH OF JUNEAU
155 S. SEWARD STREET
JUNEAU, AK 99801
Phone (907)586-5240
Manager: JUNEAU DOCKS AND HARBOR DEPARTMENT
155 S. SEWARD STREET
JUNEAU, AK 99801
Phone (907)586-5255

Seaplane Base Operational Statistics

Aircraft operations: 100/year *
50% transient general aviation
50% air taxi
* for 12-month period ending 31 December 2017

Additional Remarks

BOATS MAY DOMINATE FLOAT LEAVING NO ROOM FOR SEAPLANES.

Instrument Procedures

There are no published instrument procedures at A43.

Some nearby airports with instrument procedures:

PAJN - Juneau International Airport (25 nm NW)
PAGS - Gustavus Airport (58 nm NW)
PAFE - Kake Airport (67 nm S)
PASI - Sitka Rocky Gutierrez Airport (75 nm SW)
PAPG - Petersburg James A Johnson Airport (84 nm SE)
 
Loc | Ops | Rwys | IFR | FBO | Links
Com | Nav | Svcs | Stats | Notes

Crowley
 
Area around A43 (Taku Harbor Seaplane Base)
 
Road maps at: MapQuest Bing Google
 
Aerial photo
No photo
 
Sectional chart

 
Airport distance calculator
Flying to Taku Harbor Seaplane Base? Find the distance to fly.

From to A43

Sunrise and sunset
Times for 17-Nov-2019
 Local
(UTC-9)
 Zulu
(UTC)
Morning civil twilight07:0316:03
Sunrise07:4916:49
Sunset15:3300:33
Evening civil twilight16:1901:19

Current date and time
Zulu (UTC)  17-Nov-2019 10:19:51
Local (UTC-9)  17-Nov-2019 01:19:51
 
METAR
PAJN 
25nm NW 
170953Z 26003KT 9SM -RA BKN006 BKN021 OVC043 06/06 A2909 RMK SLP852 P0012 T00610056 VIA AUTODIAL
PAGN 
39nm SW 
170956Z AUTO 00000KT 5SM RA BR BKN031 OVC070 08/08 A2910 RMK AO2 RAB0859 SLP843 P0003 T00830083
PAOH 
46nm W 
170908Z AUTO 08010KT 8SM RA FEW013 SCT045 OVC060 07/06 A2908 RMK AO2 P0002
TAF
PAJN 
25nm NW 
170537Z 1706/1806 10010KT 6SM RA BR FEW007 SCT025 OVC035 FM170800 10010KT 6SM RA BR FEW007 BKN025 OVC035 FM171500 10015G25KT 6SM RA BR OVC025 FM171800 21012G20KT P6SM -RA OVC030 WS020/24035KT FM172100 21009KT P6SM -RA OVC030
NOTAMs
Click for the latest NOTAMs
NOTAMs are issued by the DoD/FAA and will open in a separate window not controlled by AirNav.

 

 
 

Would you like to see your business listed on this page?

 If your business provides an interesting product or service to pilots, flight crews, aircraft, or users of the Taku Harbor Seaplane Base, you should consider listing it here.  To start the listing process, click on the button below
 
Add a business
 

Other Pages about Taku Harbor Seaplane Base

Update a link
 
Copyright © AirNav, LLC. All rights reserved. Privacy Policy  Contact